Powrót do katalogu

HUCSat

AktywnyKrótkofalarstwoVLEO
NORAD 69794·PAYLOAD·🇺🇸 United States

Wystrzelony Nov 20, 1998 z Baikonur Cosmodrome

Loading…

Następne Przeloty (najbliższe 24 godziny)

TLE

ŚwieżeSource: Space-Track

Epoka: Sep 14, 2026, 07:02 UTC

1 69794U 98067YJ  26257.29346713  .00031245  00000-0  48585-3 0  9990
2 69794  51.6311 217.8392 0008244 149.0596 211.0882 15.53610484 11481

Śledź HUCSat w czasie rzeczywistym z AllMySat

Download on the App Store